Tracking 18785 objects as of 22-July-2017
HD Live streaming from Space Station
objects crossing your sky now
MAYAK may become the brightest orbital object in the night sky!
Where is MAYAK now?
How to spot MAYAK

FLOCK 3P 74

Track FLOCK 3P 74 now!
10-day predictions
FLOCK 3P 74 is classified as:


NORAD ID: 42048
Int'l Code: 2017-008DE
Perigee: 497.9 km
Apogee: 512.3 km
Inclination: 97.5 °
Period: 94.6 minutes
Semi major axis: 6876 km
RCS: Unknown
Launch date: February 15, 2017
Source: United States (US)
Launch site: SIRHARIKOTA (SRI)
Your satellite tracking list
Your tracking list is empty





NASA's NSSDC Master Catalog

Two Line Element Set (TLE):
1 42048U 17008DE  17202.86778085 +.00001916 +00000-0 +85364-4 0  9992
2 42048 097.4961 264.1586 0010480 078.5329 281.7083 15.22621997022978
Source of the keplerian elements: AFSPC